Time,TemperatureF,DewpointF,PressureIn,WindDirection,WindDirectionDegrees,WindSpeedMPH,WindSpeedGustMPH,Humidity,HourlyPrecipIn,Conditions,Clouds,dailyrainin,SoftwareType,DateUTC
2013-09-30 00:05:00,63.5,62.0,29.85,SSW,198,0.0,2.0,95,0.00,,,0.00,Wunderground v.1.15,2013-09-30 05:05:00,
2013-09-30 00:08:00,63.5,62.0,29.85,SSW,198,0.0,0.0,95,0.00,,---,0.00,VWS V14.01,2013-09-30 05:08:00,
2013-09-30 00:10:00,63.4,61.9,29.85,SSW,198,0.0,0.0,95,0.00,,,0.00,Wunderground v.1.15,2013-09-30 05:10:00,
2013-09-30 00:13:00,63.4,62.0,29.85,SSW,198,0.0,0.0,95,0.00,,---,0.00,VWS V14.01,2013-09-30 05:13:00,
2013-09-30 00:15:00,63.2,61.7,29.85,SSW,198,0.0,0.0,95,0.00,,,0.00,Wunderground v.1.15,2013-09-30 05:15:00,
2013-09-30 00:18:00,63.2,61.8,29.85,SSW,198,0.0,0.0,95,0.00,,---,0.00,VWS V14.01,2013-09-30 05:18:00,
2013-09-30 00:20:00,63.2,62.0,29.85,SSW,198,0.0,0.0,96,0.00,,,0.00,Wunderground v.1.15,2013-09-30 05:20:00,
2013-09-30 00:23:00,63.1,61.9,29.85,SSW,198,0.0,0.0,96,0.00,,---,0.00,VWS V14.01,2013-09-30 05:23:00,
2013-09-30 00:25:00,63.1,61.9,29.85,SSW,198,0.0,0.0,96,0.00,,,0.00,Wunderground v.1.15,2013-09-30 05:25:00,
2013-09-30 00:28:00,63.1,61.9,29.85,SSW,198,0.0,0.0,96,0.00,,---,0.00,VWS V14.01,2013-09-30 05:28:00,
2013-09-30 00:30:00,62.9,61.7,29.85,SSW,198,0.0,0.0,96,0.00,,,0.00,Wunderground v.1.15,2013-09-30 05:30:00,
2013-09-30 00:33:00,62.9,61.8,29.85,SSW,198,0.0,0.0,96,0.00,,---,0.00,VWS V14.01,2013-09-30 05:33:00,
2013-09-30 00:38:00,62.7,61.5,29.85,SSW,198,0.0,0.0,96,0.00,,---,0.00,VWS V14.01,2013-09-30 05:38:00,
2013-09-30 00:40:00,62.7,61.5,29.84,SSW,198,0.0,0.0,96,0.00,,,0.00,Wunderground v.1.15,2013-09-30 05:40:00,
2013-09-30 00:43:00,62.7,61.5,29.84,SSW,198,0.0,0.0,96,0.00,,---,0.00,VWS V14.01,2013-09-30 05:43:00,
2013-09-30 00:45:00,62.7,61.5,29.84,SSW,198,0.0,0.0,96,0.00,,,0.00,Wunderground v.1.15,2013-09-30 05:45:00,
2013-09-30 00:48:00,62.6,61.5,29.84,SSW,198,0.0,0.0,96,0.00,,---,0.00,VWS V14.01,2013-09-30 05:48:00,
2013-09-30 00:50:00,62.6,61.4,29.84,SSW,198,0.0,0.0,96,0.00,,,0.00,Wunderground v.1.15,2013-09-30 05:50:00,
2013-09-30 00:53:00,62.6,61.5,29.84,SSW,198,0.0,0.0,96,0.00,,---,0.00,VWS V14.01,2013-09-30 05:53:00,
2013-09-30 00:55:00,62.4,61.2,29.84,SSW,198,0.0,0.0,96,0.00,,,0.00,Wunderground v.1.15,2013-09-30 05:55:00,
2013-09-30 00:58:00,62.4,61.2,29.84,SSW,198,0.0,0.0,96,0.00,,---,0.00,VWS V14.01,2013-09-30 05:58:00,
2013-09-30 01:03:00,62.3,61.2,29.84,SSW,198,0.0,0.0,96,0.00,,---,0.00,VWS V14.01,2013-09-30 06:03:00,
2013-09-30 01:05:00,62.3,61.1,29.84,SSW,198,0.0,0.0,96,0.00,,,0.00,Wunderground v.1.15,2013-09-30 06:05:00,
2013-09-30 01:08:00,62.3,61.2,29.84,SSW,198,0.0,0.0,96,0.00,,---,0.00,VWS V14.01,2013-09-30 06:08:00,
2013-09-30 01:10:00,62.3,61.1,29.84,SSW,198,0.0,0.0,96,0.00,,,0.00,Wunderground v.1.15,2013-09-30 06:10:00,
2013-09-30 01:14:00,62.3,61.2,29.84,SSW,198,0.0,0.0,96,0.00,,---,0.00,VWS V14.01,2013-09-30 06:14:00,
2013-09-30 01:15:00,62.3,61.1,29.84,SSW,198,0.0,0.0,96,0.00,,,0.00,Wunderground v.1.15,2013-09-30 06:15:00,
2013-09-30 01:19:00,62.3,61.2,29.84,SSW,198,0.0,0.0,96,0.00,,---,0.00,VWS V14.01,2013-09-30 06:19:00,
2013-09-30 01:20:00,62.3,61.1,29.84,SSW,198,0.0,0.0,96,0.00,,,0.00,Wunderground v.1.15,2013-09-30 06:20:00,
2013-09-30 01:24:00,62.1,61.0,29.84,SSW,198,0.0,0.0,96,0.00,,---,0.00,VWS V14.01,2013-09-30 06:24:00,
2013-09-30 01:29:00,62.1,61.0,29.84,SSW,198,0.0,0.0,96,0.00,,---,0.00,VWS V14.01,2013-09-30 06:29:00,
2013-09-30 01:30:00,62.1,60.9,29.84,SSW,198,0.0,0.0,96,0.00,,,0.00,Wunderground v.1.15,2013-09-30 06:30:00,
2013-09-30 01:34:00,62.1,61.0,29.84,SSW,198,0.0,0.0,96,0.00,,---,0.00,VWS V14.01,2013-09-30 06:34:00,
2013-09-30 01:39:00,62.1,61.0,29.84,SSW,198,0.0,0.0,96,0.00,,---,0.00,VWS V14.01,2013-09-30 06:39:00,
2013-09-30 01:40:00,62.1,60.9,29.84,SSW,198,0.0,0.0,96,0.00,,,0.00,Wunderground v.1.15,2013-09-30 06:40:00,
2013-09-30 01:44:00,62.3,61.2,29.84,SSW,198,0.0,0.0,96,0.00,,---,0.00,VWS V14.01,2013-09-30 06:44:00,
2013-09-30 01:45:00,62.3,61.1,29.84,SSW,198,0.0,0.0,96,0.00,,,0.00,Wunderground v.1.15,2013-09-30 06:45:00,
2013-09-30 01:49:00,62.3,61.2,29.84,SSW,198,0.0,0.0,96,0.00,,---,0.00,VWS V14.01,2013-09-30 06:49:00,
2013-09-30 01:50:00,62.3,61.1,29.84,SSW,198,0.0,0.0,96,0.00,,,0.00,Wunderground v.1.15,2013-09-30 06:50:00,
2013-09-30 01:54:00,62.3,61.2,29.84,SSW,198,0.0,0.0,96,0.00,,---,0.00,VWS V14.01,2013-09-30 06:54:00,
2013-09-30 01:55:00,62.3,61.1,29.84,SSW,198,0.0,0.0,96,0.00,,,0.00,Wunderground v.1.15,2013-09-30 06:55:00,
2013-09-30 01:59:00,62.3,61.2,29.84,SSW,198,0.0,0.0,96,0.00,,---,0.00,VWS V14.01,2013-09-30 06:59:00,
2013-09-30 02:00:00,62.3,61.1,29.84,SSW,198,0.0,0.0,96,0.00,,,0.00,Wunderground v.1.15,2013-09-30 07:00:00,
2013-09-30 02:04:00,62.3,61.2,29.84,SSW,198,0.0,0.0,96,0.00,,---,0.00,VWS V14.01,2013-09-30 07:04:00,
2013-09-30 02:05:00,62.3,61.1,29.84,SSW,198,0.0,0.0,96,0.00,,,0.00,Wunderground v.1.15,2013-09-30 07:05:00,
2013-09-30 02:09:00,62.3,61.2,29.84,SSW,198,0.0,0.0,96,0.00,,---,0.00,VWS V14.01,2013-09-30 07:09:00,
2013-09-30 02:10:00,62.3,61.1,29.84,SSW,198,0.0,0.0,96,0.00,,,0.00,Wunderground v.1.15,2013-09-30 07:10:00,
2013-09-30 02:15:00,62.3,61.2,29.84,SSW,198,0.0,0.0,96,0.00,,---,0.00,VWS V14.01,2013-09-30 07:15:00,
2013-09-30 02:20:00,62.4,61.2,29.84,SSW,198,0.0,0.0,96,0.00,,---,0.00,VWS V14.01,2013-09-30 07:20:00,
2013-09-30 02:25:00,62.4,61.2,29.84,SSW,198,0.0,0.0,96,0.00,,---,0.00,VWS V14.01,2013-09-30 07:25:00,
2013-09-30 02:30:00,62.6,61.4,29.84,SSW,198,0.0,0.0,96,0.00,,,0.00,Wunderground v.1.15,2013-09-30 07:30:00,
2013-09-30 02:35:00,62.7,61.5,29.84,SSW,198,0.0,0.0,96,0.00,,,0.00,Wunderground v.1.15,2013-09-30 07:35:00,
2013-09-30 02:40:00,62.9,61.7,29.84,SSW,198,0.0,0.0,96,0.00,,,0.00,Wunderground v.1.15,2013-09-30 07:40:00,
2013-09-30 02:46:00,63.1,62.2,29.83,SSW,198,0.0,0.0,97,0.00,,---,0.00,VWS V14.01,2013-09-30 07:46:00,
2013-09-30 02:50:00,63.4,62.5,29.84,SSW,198,0.0,0.0,97,0.00,,,0.00,Wunderground v.1.15,2013-09-30 07:50:00,
2013-09-30 02:51:00,63.4,62.5,29.84,SSW,198,0.0,0.0,97,0.00,,---,0.00,VWS V14.01,2013-09-30 07:51:00,
2013-09-30 02:56:00,63.4,62.5,29.84,SSW,198,0.0,0.0,97,0.00,,---,0.00,VWS V14.01,2013-09-30 07:56:00,
2013-09-30 03:03:00,63.4,62.2,29.84,SSW,198,0.0,0.0,96,0.00,,---,0.00,VWS V14.01,2013-09-30 08:03:00,
2013-09-30 03:05:00,63.4,62.2,29.84,SSW,198,0.0,0.0,96,0.00,,,0.00,Wunderground v.1.15,2013-09-30 08:05:00,
2013-09-30 03:08:00,63.4,62.2,29.83,SSW,198,0.0,0.0,96,0.00,,---,0.00,VWS V14.01,2013-09-30 08:08:00,
2013-09-30 03:10:00,63.4,62.2,29.83,SSW,198,0.0,0.0,96,0.00,,,0.00,Wunderground v.1.15,2013-09-30 08:10:00,
2013-09-30 03:14:00,63.4,62.2,29.83,SSW,198,0.0,0.0,96,0.00,,---,0.00,VWS V14.01,2013-09-30 08:14:00,
2013-09-30 03:15:00,63.4,62.2,29.83,SSW,198,0.0,0.0,96,0.00,,,0.00,Wunderground v.1.15,2013-09-30 08:15:00,
2013-09-30 03:19:00,63.2,62.0,29.83,SSW,198,0.0,0.0,96,0.00,,---,0.00,VWS V14.01,2013-09-30 08:19:00,
2013-09-30 03:20:00,63.2,62.0,29.83,SSW,198,0.0,0.0,96,0.00,,,0.00,Wunderground v.1.15,2013-09-30 08:20:00,
2013-09-30 03:25:00,63.2,62.0,29.83,SSW,198,0.0,0.0,96,0.00,,---,0.00,VWS V14.01,2013-09-30 08:25:00,
2013-09-30 03:30:00,63.2,62.0,29.83,SSW,198,0.0,0.0,96,0.00,,---,0.00,VWS V14.01,2013-09-30 08:30:00,
2013-09-30 03:35:00,63.2,62.3,29.83,SSW,198,0.0,0.0,97,0.00,,---,0.00,VWS V14.01,2013-09-30 08:35:00,
2013-09-30 03:40:00,63.2,62.0,29.83,SSW,198,0.0,0.0,96,0.00,,---,0.00,VWS V14.01,2013-09-30 08:40:00,
2013-09-30 03:45:00,63.1,61.9,29.83,SSW,198,0.0,0.0,96,0.00,,---,0.00,VWS V14.01,2013-09-30 08:45:00,
2013-09-30 03:50:00,63.1,61.9,29.83,SSW,198,0.0,0.0,96,0.00,,---,0.00,VWS V14.01,2013-09-30 08:50:00,
2013-09-30 03:55:00,63.1,61.9,29.83,SSW,198,0.0,0.0,96,0.00,,,0.00,Wunderground v.1.15,2013-09-30 08:55:00,
2013-09-30 04:00:00,62.9,61.8,29.83,SSW,198,0.0,0.0,96,0.00,,---,0.00,VWS V14.01,2013-09-30 09:00:00,
2013-09-30 04:05:00,62.9,61.7,29.83,SSW,198,0.0,0.0,96,0.00,,,0.00,Wunderground v.1.15,2013-09-30 09:05:00,
2013-09-30 04:10:00,62.7,61.5,29.83,SSW,198,0.0,0.0,96,0.00,,,0.00,Wunderground v.1.15,2013-09-30 09:10:00,
2013-09-30 04:11:00,62.7,61.5,29.83,SSW,198,0.0,0.0,96,0.00,,---,0.00,VWS V14.01,2013-09-30 09:11:00,
2013-09-30 04:15:00,62.6,61.4,29.82,SSW,198,0.0,0.0,96,0.00,,,0.00,Wunderground v.1.15,2013-09-30 09:15:00,
2013-09-30 04:16:00,62.6,61.5,29.83,SSW,198,0.0,0.0,96,0.00,,---,0.00,VWS V14.01,2013-09-30 09:16:00,
2013-09-30 04:20:00,62.4,61.2,29.83,SSW,198,0.0,0.0,96,0.00,,,0.00,Wunderground v.1.15,2013-09-30 09:20:00,
2013-09-30 04:22:00,62.4,61.2,29.83,SSW,198,0.0,0.0,96,0.00,,---,0.00,VWS V14.01,2013-09-30 09:22:00,
2013-09-30 04:25:00,62.4,61.5,29.83,SSW,198,0.0,0.0,97,0.00,,,0.00,Wunderground v.1.15,2013-09-30 09:25:00,
2013-09-30 04:27:00,62.4,61.5,29.83,SSW,198,0.0,0.0,97,0.00,,---,0.00,VWS V14.01,2013-09-30 09:27:00,
2013-09-30 04:30:00,62.6,61.7,29.83,SSW,198,0.0,0.0,97,0.00,,,0.00,Wunderground v.1.15,2013-09-30 09:30:00,
2013-09-30 04:32:00,62.6,61.7,29.83,SSW,198,0.0,0.0,97,0.00,,---,0.00,VWS V14.01,2013-09-30 09:32:00,
2013-09-30 04:35:00,62.6,61.7,29.83,SSW,198,0.0,0.0,97,0.00,,,0.00,Wunderground v.1.15,2013-09-30 09:35:00,
2013-09-30 04:37:00,62.6,61.7,29.83,SSW,198,0.0,0.0,97,0.00,,---,0.00,VWS V14.01,2013-09-30 09:37:00,
2013-09-30 04:40:00,62.6,61.7,29.83,SSW,198,0.0,0.0,97,0.00,,,0.00,Wunderground v.1.15,2013-09-30 09:40:00,
2013-09-30 04:42:00,62.7,61.8,29.83,SSW,198,0.0,0.0,97,0.00,,---,0.00,VWS V14.01,2013-09-30 09:42:00,
2013-09-30 04:45:00,62.7,61.8,29.83,SSW,198,0.0,0.0,97,0.00,,,0.00,Wunderground v.1.15,2013-09-30 09:45:00,
2013-09-30 04:47:00,62.7,61.8,29.82,SSW,198,0.0,0.0,97,0.00,,---,0.00,VWS V14.01,2013-09-30 09:47:00,
2013-09-30 04:50:00,62.9,62.0,29.82,SSW,198,0.0,0.0,97,0.00,,,0.00,Wunderground v.1.15,2013-09-30 09:50:00,
2013-09-30 04:52:00,62.7,61.8,29.83,SSW,198,0.0,0.0,97,0.00,,---,0.00,VWS V14.01,2013-09-30 09:52:00,
2013-09-30 04:55:00,62.7,61.8,29.83,SSW,198,0.0,0.0,97,0.00,,,0.00,Wunderground v.1.15,2013-09-30 09:55:00,
2013-09-30 04:57:00,62.7,61.8,29.82,SSW,198,0.0,0.0,97,0.00,,---,0.00,VWS V14.01,2013-09-30 09:57:00,
2013-09-30 05:00:00,62.6,61.7,29.82,SSW,198,0.0,0.0,97,0.00,,,0.00,Wunderground v.1.15,2013-09-30 10:00:00,
2013-09-30 05:03:00,62.4,61.5,29.83,SSW,198,0.0,0.0,97,0.00,,---,0.00,VWS V14.01,2013-09-30 10:03:00,
2013-09-30 05:05:00,62.4,61.5,29.83,SSW,198,0.0,0.0,97,0.00,,,0.00,Wunderground v.1.15,2013-09-30 10:05:00,
2013-09-30 05:08:00,62.4,61.5,29.83,SSW,198,0.0,0.0,97,0.00,,---,0.00,VWS V14.01,2013-09-30 10:08:00,
2013-09-30 05:10:00,62.3,61.4,29.83,SSW,198,0.0,0.0,97,0.00,,,0.00,Wunderground v.1.15,2013-09-30 10:10:00,
2013-09-30 05:14:00,62.3,61.4,29.82,SSW,198,0.0,0.0,97,0.00,,---,0.00,VWS V14.01,2013-09-30 10:14:00,
2013-09-30 05:15:00,62.3,61.4,29.82,SSW,198,0.0,0.0,97,0.00,,,0.00,Wunderground v.1.15,2013-09-30 10:15:00,
2013-09-30 05:19:00,62.3,61.4,29.82,SSW,198,0.0,0.0,97,0.00,,---,0.00,VWS V14.01,2013-09-30 10:19:00,
2013-09-30 05:20:00,62.3,61.4,29.82,SSW,198,0.0,0.0,97,0.00,,,0.00,Wunderground v.1.15,2013-09-30 10:20:00,
2013-09-30 05:24:00,62.1,61.2,29.82,SSW,198,0.0,0.0,97,0.00,,---,0.00,VWS V14.01,2013-09-30 10:24:00,
2013-09-30 05:25:00,62.1,61.2,29.82,SSW,198,0.0,0.0,97,0.00,,,0.00,Wunderground v.1.15,2013-09-30 10:25:00,
2013-09-30 05:29:00,62.3,61.4,29.83,SSW,198,0.0,0.0,97,0.00,,---,0.00,VWS V14.01,2013-09-30 10:29:00,
2013-09-30 05:30:00,62.3,61.4,29.83,SSW,198,0.0,0.0,97,0.00,,,0.00,Wunderground v.1.15,2013-09-30 10:30:00,
2013-09-30 05:34:00,62.3,61.4,29.83,SSW,198,0.0,0.0,97,0.00,,---,0.00,VWS V14.01,2013-09-30 10:34:00,
2013-09-30 05:35:00,62.3,61.4,29.83,SSW,198,0.0,0.0,97,0.00,,,0.00,Wunderground v.1.15,2013-09-30 10:35:00,
2013-09-30 05:39:00,62.1,61.2,29.83,SSW,198,0.0,0.0,97,0.00,,---,0.00,VWS V14.01,2013-09-30 10:39:00,
2013-09-30 05:40:00,62.1,61.2,29.83,SSW,198,0.0,0.0,97,0.00,,,0.00,Wunderground v.1.15,2013-09-30 10:40:00,
2013-09-30 05:44:00,62.0,61.1,29.83,SSW,198,0.0,0.0,97,0.00,,---,0.00,VWS V14.01,2013-09-30 10:44:00,
2013-09-30 05:45:00,62.0,61.1,29.83,SSW,198,0.0,0.0,97,0.00,,,0.00,Wunderground v.1.15,2013-09-30 10:45:00,
2013-09-30 05:49:00,62.0,61.1,29.83,SSW,198,0.0,0.0,97,0.00,,---,0.00,VWS V14.01,2013-09-30 10:49:00,
2013-09-30 05:50:00,62.0,61.1,29.83,SSW,198,0.0,0.0,97,0.00,,,0.00,Wunderground v.1.15,2013-09-30 10:50:00,
2013-09-30 05:54:00,62.0,61.1,29.83,SSW,198,0.0,0.0,97,0.00,,---,0.00,VWS V14.01,2013-09-30 10:54:00,
2013-09-30 05:55:00,62.0,61.1,29.83,SSW,198,0.0,0.0,97,0.00,,,0.00,Wunderground v.1.15,2013-09-30 10:55:00,
2013-09-30 05:59:00,62.0,61.1,29.83,SSW,198,0.0,0.0,97,0.00,,---,0.00,VWS V14.01,2013-09-30 10:59:00,
2013-09-30 06:00:00,62.0,61.1,29.83,SSW,198,0.0,0.0,97,0.00,,,0.00,Wunderground v.1.15,2013-09-30 11:00:00,
2013-09-30 06:05:00,62.0,61.1,29.83,SSW,198,0.0,0.0,97,0.00,,---,0.00,VWS V14.01,2013-09-30 11:05:00,
2013-09-30 06:10:00,62.0,61.1,29.83,SSW,198,0.0,0.0,97,0.00,,---,0.00,VWS V14.01,2013-09-30 11:10:00,
2013-09-30 06:15:00,62.0,61.1,29.83,SSW,198,0.0,0.0,97,0.00,,,0.00,Wunderground v.1.15,2013-09-30 11:15:00,
2013-09-30 06:20:00,62.0,61.1,29.83,SSW,198,0.0,0.0,97,0.00,,,0.00,Wunderground v.1.15,2013-09-30 11:20:00,
2013-09-30 06:21:00,62.0,61.1,29.83,SSW,198,0.0,0.0,97,0.00,,---,0.00,VWS V14.01,2013-09-30 11:21:00,
2013-09-30 06:25:00,62.1,61.2,29.83,SSW,198,0.0,0.0,97,0.00,,,0.00,Wunderground v.1.15,2013-09-30 11:25:00,
2013-09-30 06:26:00,62.1,61.2,29.83,SSW,198,0.0,0.0,97,0.00,,---,0.00,VWS V14.01,2013-09-30 11:26:00,
2013-09-30 06:30:00,62.1,61.2,29.83,SSW,198,0.0,0.0,97,0.00,,,0.00,Wunderground v.1.15,2013-09-30 11:30:00,
2013-09-30 06:31:00,62.1,61.2,29.83,SSW,198,0.0,0.0,97,0.00,,---,0.00,VWS V14.01,2013-09-30 11:31:00,
2013-09-30 06:35:00,62.1,61.2,29.83,SSW,198,0.0,0.0,97,0.00,,,0.00,Wunderground v.1.15,2013-09-30 11:35:00,
2013-09-30 06:36:00,62.1,61.2,29.83,SSW,198,0.0,0.0,97,0.00,,---,0.00,VWS V14.01,2013-09-30 11:36:00,
2013-09-30 06:40:00,62.4,61.5,29.83,SSW,198,0.0,0.0,97,0.00,,,0.00,Wunderground v.1.15,2013-09-30 11:40:00,
2013-09-30 06:41:00,62.4,61.5,29.83,SSW,198,0.0,0.0,97,0.00,,---,0.00,VWS V14.01,2013-09-30 11:41:00,
2013-09-30 06:45:00,62.7,61.8,29.83,SSW,198,0.0,0.0,97,0.00,,,0.00,Wunderground v.1.15,2013-09-30 11:45:00,
2013-09-30 06:46:00,62.7,61.8,29.83,SSW,198,0.0,0.0,97,0.00,,---,0.00,VWS V14.01,2013-09-30 11:46:00,
2013-09-30 06:50:00,62.9,62.0,29.83,SSW,198,0.0,0.0,97,0.00,,,0.00,Wunderground v.1.15,2013-09-30 11:50:00,
2013-09-30 06:51:00,62.9,62.0,29.83,SSW,198,0.0,0.0,97,0.00,,---,0.00,VWS V14.01,2013-09-30 11:51:00,
2013-09-30 06:55:00,63.1,62.2,29.83,SSW,198,0.0,0.0,97,0.00,,,0.00,Wunderground v.1.15,2013-09-30 11:55:00,
2013-09-30 06:57:00,63.1,62.2,29.83,SSW,198,0.0,0.0,97,0.00,,---,0.00,VWS V14.01,2013-09-30 11:57:00,
2013-09-30 07:00:00,63.7,62.8,29.83,SSW,198,0.0,0.0,97,0.00,,,0.00,Wunderground v.1.15,2013-09-30 12:00:00,
2013-09-30 07:02:00,63.9,63.0,29.83,SSW,198,0.0,0.0,97,0.00,,---,0.00,VWS V14.01,2013-09-30 12:02:00,
2013-09-30 07:05:00,63.9,63.0,29.83,SSW,198,0.0,0.0,97,0.00,,,0.00,Wunderground v.1.15,2013-09-30 12:05:00,
2013-09-30 07:07:00,63.9,63.0,29.83,SSW,198,0.0,0.0,97,0.00,,---,0.00,VWS V14.01,2013-09-30 12:07:00,
2013-09-30 07:10:00,64.0,63.1,29.83,SSW,198,0.0,0.0,97,0.00,,,0.00,Wunderground v.1.15,2013-09-30 12:10:00,
2013-09-30 07:12:00,64.2,63.3,29.83,SSW,198,0.0,0.0,97,0.00,,---,0.00,VWS V14.01,2013-09-30 12:12:00,
2013-09-30 07:15:00,64.3,63.4,29.83,SSW,198,0.0,0.0,97,0.00,,,0.00,Wunderground v.1.15,2013-09-30 12:15:00,
2013-09-30 07:17:00,64.3,63.4,29.83,SSW,198,0.0,0.0,97,0.00,,---,0.00,VWS V14.01,2013-09-30 12:17:00,
2013-09-30 07:20:00,64.3,63.4,29.83,SSW,198,0.0,0.0,97,0.00,,,0.00,Wunderground v.1.15,2013-09-30 12:20:00,
2013-09-30 07:22:00,64.5,63.6,29.83,SSW,198,0.0,0.0,97,0.00,,---,0.00,VWS V14.01,2013-09-30 12:22:00,
2013-09-30 07:25:00,64.7,63.8,29.83,SSW,198,0.0,0.0,97,0.00,,,0.00,Wunderground v.1.15,2013-09-30 12:25:00,
2013-09-30 07:27:00,64.7,63.8,29.83,SSW,198,0.0,0.0,97,0.00,,---,0.00,VWS V14.01,2013-09-30 12:27:00,
2013-09-30 07:30:00,64.7,63.8,29.83,SSW,198,0.0,0.0,97,0.00,,,0.00,Wunderground v.1.15,2013-09-30 12:30:00,
2013-09-30 07:32:00,64.7,63.8,29.83,SSW,198,0.0,0.0,97,0.00,,---,0.00,VWS V14.01,2013-09-30 12:32:00,
2013-09-30 07:35:00,64.7,63.8,29.83,SSW,198,0.0,0.0,97,0.00,,,0.00,Wunderground v.1.15,2013-09-30 12:35:00,
2013-09-30 07:37:00,64.7,63.8,29.83,SSW,198,0.0,0.0,97,0.00,,---,0.00,VWS V14.01,2013-09-30 12:37:00,
2013-09-30 07:40:00,64.7,63.8,29.83,SSW,198,0.0,0.0,97,0.00,,,0.00,Wunderground v.1.15,2013-09-30 12:40:00,
2013-09-30 07:43:00,64.8,63.9,29.83,SSW,198,0.0,0.0,97,0.00,,---,0.00,VWS V14.01,2013-09-30 12:43:00,
2013-09-30 07:48:00,65.0,64.1,29.84,SSW,198,0.0,0.0,97,0.00,,---,0.00,VWS V14.01,2013-09-30 12:48:00,
2013-09-30 07:50:00,65.0,64.1,29.84,SSW,198,0.0,0.0,97,0.00,,,0.00,Wunderground v.1.15,2013-09-30 12:50:00,
2013-09-30 07:54:00,65.2,64.3,29.84,SSW,198,0.0,0.0,97,0.00,,---,0.00,VWS V14.01,2013-09-30 12:54:00,
2013-09-30 07:55:00,65.3,64.4,29.84,SSW,198,0.0,0.0,97,0.00,,,0.00,Wunderground v.1.15,2013-09-30 12:55:00,
2013-09-30 07:59:00,65.5,64.6,29.84,SSW,198,0.0,0.0,97,0.00,,---,0.00,VWS V14.01,2013-09-30 12:59:00,
2013-09-30 08:04:00,65.8,64.9,29.84,SSW,198,0.0,0.0,97,0.00,,---,0.00,VWS V14.01,2013-09-30 13:04:00,
2013-09-30 08:05:00,65.8,64.9,29.84,SSW,198,0.0,0.0,97,0.00,,,0.00,Wunderground v.1.15,2013-09-30 13:05:00,
2013-09-30 08:09:00,66.1,65.2,29.84,SSW,198,0.0,0.0,97,0.00,,---,0.00,VWS V14.01,2013-09-30 13:09:00,
2013-09-30 08:10:00,66.1,65.2,29.84,SSW,198,0.0,0.0,97,0.00,,,0.00,Wunderground v.1.15,2013-09-30 13:10:00,
2013-09-30 08:14:00,66.4,65.5,29.84,SSW,198,0.0,0.0,97,0.00,,---,0.00,VWS V14.01,2013-09-30 13:14:00,
2013-09-30 08:15:00,66.4,65.5,29.84,SSW,198,0.0,0.0,97,0.00,,,0.00,Wunderground v.1.15,2013-09-30 13:15:00,
2013-09-30 08:19:00,66.8,65.9,29.85,SSW,198,0.0,1.0,97,0.00,,---,0.00,VWS V14.01,2013-09-30 13:19:00,
2013-09-30 08:20:00,66.9,66.0,29.85,SSW,198,0.0,1.0,97,0.00,,,0.00,Wunderground v.1.15,2013-09-30 13:20:00,
2013-09-30 08:24:00,67.3,66.7,29.85,SSW,198,0.0,2.0,98,0.00,,---,0.00,VWS V14.01,2013-09-30 13:24:00,
2013-09-30 08:25:00,67.3,66.7,29.85,SSW,198,0.0,1.0,98,0.00,,,0.00,Wunderground v.1.15,2013-09-30 13:25:00,
2013-09-30 08:30:00,67.4,66.5,29.85,SSW,198,0.0,2.0,97,0.00,,---,0.00,VWS V14.01,2013-09-30 13:30:00,
2013-09-30 08:35:00,67.8,66.9,29.85,SSW,198,1.0,1.0,97,0.00,,---,0.00,VWS V14.01,2013-09-30 13:35:00,
2013-09-30 08:40:00,68.1,67.2,29.85,SSW,198,0.0,0.0,97,0.00,,---,0.00,VWS V14.01,2013-09-30 13:40:00,
2013-09-30 08:45:00,68.3,67.4,29.85,SE,135,0.0,0.0,97,0.00,,,0.00,Wunderground v.1.15,2013-09-30 13:45:00,
2013-09-30 08:50:00,68.3,67.4,29.85,SE,135,0.0,0.0,97,0.00,,,0.00,Wunderground v.1.15,2013-09-30 13:50:00,
2013-09-30 08:51:00,68.3,67.4,29.85,SE,135,0.0,0.0,97,0.00,,---,0.00,VWS V14.01,2013-09-30 13:51:00,
2013-09-30 08:55:00,68.4,67.8,29.85,SE,139,0.0,2.0,98,0.00,,,0.00,Wunderground v.1.15,2013-09-30 13:55:00,
2013-09-30 08:56:00,68.4,67.8,29.85,SE,135,0.0,2.0,98,0.00,,---,0.00,VWS V14.01,2013-09-30 13:56:00,
2013-09-30 09:00:00,68.6,67.7,29.85,SE,135,0.0,0.0,97,0.00,,,0.00,Wunderground v.1.15,2013-09-30 14:00:00,
2013-09-30 09:01:00,68.6,67.7,29.85,SE,135,0.0,0.0,97,0.00,,---,0.00,VWS V14.01,2013-09-30 14:01:00,
2013-09-30 09:05:00,68.8,68.2,29.85,SE,135,0.0,0.0,98,0.00,,,0.00,Wunderground v.1.15,2013-09-30 14:05:00,
2013-09-30 09:06:00,68.8,68.2,29.85,SE,135,1.0,2.0,98,0.00,,---,0.00,VWS V14.01,2013-09-30 14:06:00,
2013-09-30 09:10:00,68.9,68.3,29.85,SE,136,0.0,0.0,98,0.00,,,0.00,Wunderground v.1.15,2013-09-30 14:10:00,
2013-09-30 09:11:00,68.9,68.3,29.85,SE,136,0.0,0.0,98,0.00,,---,0.00,VWS V14.01,2013-09-30 14:11:00,
2013-09-30 09:15:00,69.1,68.5,29.85,SE,135,0.0,1.0,98,0.00,,,0.00,Wunderground v.1.15,2013-09-30 14:15:00,
2013-09-30 09:16:00,69.3,68.7,29.85,SE,135,0.0,2.0,98,0.00,,---,0.00,VWS V14.01,2013-09-30 14:16:00,
2013-09-30 09:21:00,69.4,68.8,29.85,SE,136,0.0,1.0,98,0.00,,---,0.00,VWS V14.01,2013-09-30 14:21:00,
2013-09-30 09:25:00,69.6,69.0,29.85,SE,136,1.0,1.0,98,0.00,,,0.00,Wunderground v.1.15,2013-09-30 14:25:00,
2013-09-30 09:26:00,69.6,69.0,29.85,SE,136,1.0,3.0,98,0.00,,---,0.00,VWS V14.01,2013-09-30 14:26:00,
2013-09-30 09:30:00,69.8,69.2,29.85,SE,136,1.0,1.0,98,0.00,,,0.00,Wunderground v.1.15,2013-09-30 14:30:00,
2013-09-30 09:31:00,69.9,69.3,29.85,SE,136,0.0,0.0,98,0.00,,---,0.00,VWS V14.01,2013-09-30 14:31:00,
2013-09-30 09:35:00,70.3,69.7,29.85,SE,136,0.0,2.0,98,0.00,,,0.00,Wunderground v.1.15,2013-09-30 14:35:00,
2013-09-30 09:36:00,70.3,69.7,29.85,SE,136,1.0,3.0,98,0.00,,---,0.00,VWS V14.01,2013-09-30 14:36:00,
2013-09-30 09:40:00,70.4,69.8,29.85,SE,135,1.0,1.0,98,0.00,,,0.00,Wunderground v.1.15,2013-09-30 14:40:00,
2013-09-30 09:42:00,70.8,70.2,29.85,SE,135,0.0,2.0,98,0.00,,---,0.00,VWS V14.01,2013-09-30 14:42:00,
2013-09-30 09:45:00,70.8,70.2,29.85,NE,47,1.0,1.0,98,0.00,,,0.00,Wunderground v.1.15,2013-09-30 14:45:00,
2013-09-30 09:47:00,70.8,70.2,29.85,NE,47,0.0,3.0,98,0.00,,---,0.00,VWS V14.01,2013-09-30 14:47:00,
2013-09-30 09:50:00,70.8,70.2,29.85,NE,47,1.0,2.0,98,0.00,,,0.00,Wunderground v.1.15,2013-09-30 14:50:00,
2013-09-30 09:52:00,70.9,70.3,29.85,NE,47,5.0,5.0,98,0.00,,---,0.00,VWS V14.01,2013-09-30 14:52:00,
2013-09-30 09:55:00,70.8,70.2,29.85,NE,56,2.0,2.0,98,0.00,,,0.00,Wunderground v.1.15,2013-09-30 14:55:00,
2013-09-30 09:57:00,70.8,70.2,29.85,NE,56,3.0,5.0,98,0.00,,---,0.00,VWS V14.01,2013-09-30 14:57:00,
2013-09-30 10:00:00,70.8,70.2,29.85,NE,54,2.0,2.0,98,0.00,,,0.00,Wunderground v.1.15,2013-09-30 15:00:00,
2013-09-30 10:02:00,70.8,70.2,29.85,NE,56,2.0,5.0,98,0.00,,---,0.00,VWS V14.01,2013-09-30 15:02:00,
2013-09-30 10:05:00,70.8,70.2,29.85,NE,56,2.0,2.0,98,0.00,,,0.00,Wunderground v.1.15,2013-09-30 15:05:00,
2013-09-30 10:07:00,70.8,70.2,29.85,NE,56,1.0,5.0,98,0.00,,---,0.00,VWS V14.01,2013-09-30 15:07:00,
2013-09-30 10:10:00,70.9,70.3,29.85,ENE,57,1.0,1.0,98,0.00,,,0.00,Wunderground v.1.15,2013-09-30 15:10:00,
2013-09-30 10:13:00,71.3,70.7,29.85,NE,56,1.0,3.0,98,0.00,,---,0.00,VWS V14.01,2013-09-30 15:13:00,
2013-09-30 10:15:00,71.5,70.9,29.85,NE,56,2.0,3.0,98,0.00,,,0.00,Wunderground v.1.15,2013-09-30 15:15:00,
2013-09-30 10:18:00,71.5,70.9,29.85,NE,56,1.0,3.0,98,0.00,,---,0.00,VWS V14.01,2013-09-30 15:18:00,
2013-09-30 10:20:00,71.5,70.9,29.85,NE,51,2.0,3.0,98,0.00,,,0.00,Wunderground v.1.15,2013-09-30 15:20:00,
2013-09-30 10:23:00,71.5,70.9,29.85,NE,51,2.0,5.0,98,0.00,,---,0.00,VWS V14.01,2013-09-30 15:23:00,
2013-09-30 10:25:00,71.1,70.5,29.85,NE,37,2.0,3.0,98,0.00,,,0.00,Wunderground v.1.15,2013-09-30 15:25:00,
2013-09-30 10:28:00,71.1,70.5,29.85,NE,37,1.0,6.0,98,0.00,,---,0.00,VWS V14.01,2013-09-30 15:28:00,
2013-09-30 10:30:00,71.1,70.2,29.85,NE,37,3.0,3.0,97,0.00,,,0.00,Wunderground v.1.15,2013-09-30 15:30:00,
2013-09-30 10:33:00,71.6,70.7,29.85,ENE,74,3.0,5.0,97,0.00,,---,0.00,VWS V14.01,2013-09-30 15:33:00,
2013-09-30 10:35:00,71.8,70.9,29.85,ENE,74,2.0,3.0,97,0.00,,,0.00,Wunderground v.1.15,2013-09-30 15:35:00,
2013-09-30 10:38:00,71.8,70.9,29.86,NE,37,5.0,7.0,97,0.00,,---,0.00,VWS V14.01,2013-09-30 15:38:00,
2013-09-30 10:40:00,71.6,70.7,29.86,NE,37,3.0,3.0,97,0.00,,,0.00,Wunderground v.1.15,2013-09-30 15:40:00,
2013-09-30 10:43:00,71.6,70.7,29.86,NE,37,2.0,3.0,97,0.00,,---,0.00,VWS V14.01,2013-09-30 15:43:00,
2013-09-30 10:45:00,71.6,70.7,29.86,NE,37,3.0,3.0,97,0.00,,,0.00,Wunderground v.1.15,2013-09-30 15:45:00,
2013-09-30 10:48:00,72.0,71.1,29.86,NE,37,1.0,3.0,97,0.00,,---,0.00,VWS V14.01,2013-09-30 15:48:00,
2013-09-30 10:50:00,72.0,71.1,29.86,NE,37,1.0,1.0,97,0.00,,,0.00,Wunderground v.1.15,2013-09-30 15:50:00,
2013-09-30 10:54:00,72.1,70.9,29.86,NE,37,0.0,1.0,96,0.00,,---,0.00,VWS V14.01,2013-09-30 15:54:00,
2013-09-30 10:55:00,72.1,70.9,29.86,NE,37,1.0,1.0,96,0.00,,,0.00,Wunderground v.1.15,2013-09-30 15:55:00,
2013-09-30 10:59:00,72.5,71.3,29.86,NE,37,0.0,1.0,96,0.00,,---,0.00,VWS V14.01,2013-09-30 15:59:00,
2013-09-30 11:00:00,72.7,71.5,29.86,NE,37,0.0,1.0,96,0.00,,,0.00,Wunderground v.1.15,2013-09-30 16:00:00,
2013-09-30 11:04:00,72.7,71.5,29.86,NE,37,0.0,2.0,96,0.00,,---,0.00,VWS V14.01,2013-09-30 16:04:00,
2013-09-30 11:05:00,72.7,71.5,29.86,NE,37,1.0,1.0,96,0.00,,,0.00,Wunderground v.1.15,2013-09-30 16:05:00,
2013-09-30 11:09:00,73.0,71.5,29.86,NE,37,2.0,3.0,95,0.00,,---,0.00,VWS V14.01,2013-09-30 16:09:00,
2013-09-30 11:10:00,73.0,71.2,29.86,ENE,61,1.0,5.0,94,0.00,,,0.00,Wunderground v.1.15,2013-09-30 16:10:00,
2013-09-30 11:14:00,73.0,70.9,29.86,ENE,61,1.0,5.0,93,0.00,,---,0.00,VWS V14.01,2013-09-30 16:14:00,
2013-09-30 11:15:00,73.0,70.9,29.86,ENE,61,2.0,5.0,93,0.00,,,0.00,Wunderground v.1.15,2013-09-30 16:15:00,
2013-09-30 11:19:00,73.5,71.4,29.86,ENE,61,2.0,5.0,93,0.00,,---,0.00,VWS V14.01,2013-09-30 16:19:00,
2013-09-30 11:20:00,73.5,71.4,29.86,ENE,61,2.0,2.0,93,0.00,,,0.00,Wunderground v.1.15,2013-09-30 16:20:00,
2013-09-30 11:24:00,74.0,70.9,29.86,ENE,60,0.0,2.0,90,0.00,,---,0.00,VWS V14.01,2013-09-30 16:24:00,
2013-09-30 11:25:00,74.0,70.9,29.86,ENE,60,2.0,2.0,90,0.00,,,0.00,Wunderground v.1.15,2013-09-30 16:25:00,
2013-09-30 11:30:00,74.6,71.2,29.85,NNE,30,5.0,5.0,89,0.00,,---,0.00,VWS V14.01,2013-09-30 16:30:00,
2013-09-30 11:35:00,74.9,70.4,29.85,North,1,3.0,6.0,86,0.00,,---,0.00,VWS V14.01,2013-09-30 16:35:00,
2013-09-30 11:40:00,75.4,70.2,29.85,NE,51,4.0,4.0,84,0.00,,,0.00,Wunderground v.1.15,2013-09-30 16:40:00,
2013-09-30 11:45:00,76.1,70.6,29.85,NNE,33,3.0,5.0,83,0.00,,,0.00,Wunderground v.1.15,2013-09-30 16:45:00,
2013-09-30 11:50:00,76.1,69.8,29.85,NNE,32,3.0,3.0,81,0.00,,,0.00,Wunderground v.1.15,2013-09-30 16:50:00,
2013-09-30 11:55:00,76.0,69.7,29.85,NE,36,2.0,3.0,81,0.00,,,0.00,Wunderground v.1.15,2013-09-30 16:55:00,
2013-09-30 11:56:00,76.0,69.4,29.85,East,87,6.0,8.0,80,0.00,,---,0.00,VWS V14.01,2013-09-30 16:56:00,
2013-09-30 12:00:00,76.0,69.7,29.85,NNE,27,3.0,3.0,81,0.00,,,0.00,Wunderground v.1.15,2013-09-30 17:00:00,
2013-09-30 12:01:00,76.0,69.8,29.85,NNE,27,0.0,1.0,81,0.00,,---,0.00,VWS V14.01,2013-09-30 17:01:00,
2013-09-30 12:05:00,76.7,69.7,29.85,NE,44,3.0,6.0,79,0.00,,,0.00,Wunderground v.1.15,2013-09-30 17:05:00,
2013-09-30 12:06:00,76.7,69.7,29.85,NE,44,6.0,6.0,79,0.00,,---,0.00,VWS V14.01,2013-09-30 17:06:00,
2013-09-30 12:10:00,77.6,69.8,29.85,NNE,19,3.0,3.0,77,0.00,,,0.00,Wunderground v.1.15,2013-09-30 17:10:00,
2013-09-30 12:11:00,77.6,68.3,29.85,NNE,19,2.0,3.0,73,0.00,,---,0.00,VWS V14.01,2013-09-30 17:11:00,
2013-09-30 12:16:00,78.1,68.3,29.85,NE,49,1.0,6.0,72,0.00,,---,0.00,VWS V14.01,2013-09-30 17:16:00,
2013-09-30 12:20:00,78.6,68.8,29.84,East,87,2.0,3.0,72,0.00,,,0.00,Wunderground v.1.15,2013-09-30 17:20:00,
2013-09-30 12:21:00,78.6,68.8,29.84,East,87,3.0,5.0,72,0.00,,---,0.00,VWS V14.01,2013-09-30 17:21:00,
2013-09-30 12:25:00,78.8,69.0,29.84,NNE,22,3.0,3.0,72,0.00,,,0.00,Wunderground v.1.15,2013-09-30 17:25:00,
2013-09-30 12:26:00,78.8,70.2,29.84,NNE,22,1.0,6.0,75,0.00,,---,0.00,VWS V14.01,2013-09-30 17:26:00,
2013-09-30 12:30:00,79.2,68.6,29.84,SSW,195,3.0,3.0,70,0.00,,,0.00,Wunderground v.1.15,2013-09-30 17:30:00,
2013-09-30 12:31:00,79.4,69.2,29.84,South,184,3.0,3.0,71,0.00,,---,0.00,VWS V14.01,2013-09-30 17:31:00,
2013-09-30 12:35:00,79.8,69.6,29.84,ENE,78,2.0,3.0,71,0.00,,,0.00,Wunderground v.1.15,2013-09-30 17:35:00,
2013-09-30 12:36:00,79.9,67.1,29.84,ENE,77,2.0,3.0,65,0.00,,---,0.00,VWS V14.01,2013-09-30 17:36:00,
2013-09-30 12:41:00,80.3,68.3,29.84,ENE,77,3.0,3.0,67,0.00,,---,0.00,VWS V14.01,2013-09-30 17:41:00,
2013-09-30 12:45:00,80.3,67.5,29.84,ENE,75,2.0,5.0,65,0.00,,,0.00,Wunderground v.1.15,2013-09-30 17:45:00,
2013-09-30 12:46:00,80.3,67.5,29.84,ENE,74,1.0,5.0,65,0.00,,---,0.00,VWS V14.01,2013-09-30 17:46:00,
2013-09-30 12:50:00,80.3,66.6,29.83,ENE,74,2.0,2.0,63,0.00,,,0.00,Wunderground v.1.15,2013-09-30 17:50:00,
2013-09-30 12:52:00,80.5,66.8,29.83,NE,43,3.0,3.0,63,0.00,,---,0.00,VWS V14.01,2013-09-30 17:52:00,
2013-09-30 12:55:00,80.5,65.8,29.83,NW,308,2.0,2.0,61,0.00,,,0.00,Wunderground v.1.15,2013-09-30 17:55:00,
2013-09-30 12:57:00,80.5,67.2,29.83,NW,308,1.0,5.0,64,0.00,,---,0.00,VWS V14.01,2013-09-30 17:57:00,
2013-09-30 13:00:00,80.7,67.8,29.83,WSW,242,2.0,2.0,65,0.00,,,0.00,Wunderground v.1.15,2013-09-30 18:00:00,
2013-09-30 13:02:00,81.1,68.7,29.83,SSE,152,1.0,2.0,66,0.00,,---,0.00,VWS V14.01,2013-09-30 18:02:00,
2013-09-30 13:05:00,81.4,67.1,29.83,ENE,73,1.0,8.0,62,0.00,,,0.00,Wunderground v.1.15,2013-09-30 18:05:00,
2013-09-30 13:07:00,81.6,66.9,29.83,South,179,2.0,5.0,61,0.00,,---,0.00,VWS V14.01,2013-09-30 18:07:00,
2013-09-30 13:10:00,82.0,67.7,29.82,South,179,2.0,8.0,62,0.00,,,0.00,Wunderground v.1.15,2013-09-30 18:10:00,
2013-09-30 13:12:00,82.0,67.2,29.82,South,173,2.0,2.0,61,0.00,,---,0.00,VWS V14.01,2013-09-30 18:12:00,
2013-09-30 13:15:00,82.0,67.7,29.82,ENE,63,2.0,8.0,62,0.00,,,0.00,Wunderground v.1.15,2013-09-30 18:15:00,
2013-09-30 13:17:00,82.0,67.7,29.82,ENE,61,1.0,3.0,62,0.00,,---,0.00,VWS V14.01,2013-09-30 18:17:00,
2013-09-30 13:20:00,82.4,67.1,29.82,NNE,32,2.0,8.0,60,0.00,,,0.00,Wunderground v.1.15,2013-09-30 18:20:00,
2013-09-30 13:23:00,82.2,66.5,29.82,ENE,75,5.0,5.0,59,0.00,,---,0.00,VWS V14.01,2013-09-30 18:23:00,
2013-09-30 13:25:00,82.0,67.2,29.82,South,187,2.0,8.0,61,0.00,,,0.00,Wunderground v.1.15,2013-09-30 18:25:00,
2013-09-30 13:28:00,82.0,67.7,29.82,South,190,2.0,6.0,62,0.00,,---,0.00,VWS V14.01,2013-09-30 18:28:00,
2013-09-30 13:30:00,82.0,67.7,29.82,South,174,3.0,3.0,62,0.00,,,0.00,Wunderground v.1.15,2013-09-30 18:30:00,
2013-09-30 13:33:00,82.0,68.2,29.82,East,88,3.0,5.0,63,0.00,,---,0.00,VWS V14.01,2013-09-30 18:33:00,
2013-09-30 13:35:00,82.0,68.2,29.81,East,88,3.0,8.0,63,0.00,,,0.00,Wunderground v.1.15,2013-09-30 18:35:00,
2013-09-30 13:39:00,82.2,67.9,29.81,East,87,0.0,5.0,62,0.00,,---,0.00,VWS V14.01,2013-09-30 18:39:00,
2013-09-30 13:40:00,82.4,68.1,29.81,East,87,2.0,2.0,62,0.00,,,0.00,Wunderground v.1.15,2013-09-30 18:40:00,
2013-09-30 13:44:00,82.2,67.4,29.81,East,80,0.0,3.0,61,0.00,,---,0.00,VWS V14.01,2013-09-30 18:44:00,
2013-09-30 13:45:00,82.4,67.6,29.81,ENE,77,1.0,8.0,61,0.00,,,0.00,Wunderground v.1.15,2013-09-30 18:45:00,
2013-09-30 13:50:00,82.0,66.8,29.81,ENE,77,1.0,3.0,60,0.00,,---,0.00,VWS V14.01,2013-09-30 18:50:00,
2013-09-30 13:55:00,82.2,67.4,29.81,SSW,201,1.0,3.0,61,0.00,,---,0.00,VWS V14.01,2013-09-30 18:55:00,
2013-09-30 14:00:00,82.4,68.1,29.81,South,169,1.0,5.0,62,0.00,,---,0.00,VWS V14.01,2013-09-30 19:00:00,
2013-09-30 14:05:00,82.6,67.3,29.80,South,170,1.0,2.0,60,0.00,,---,0.00,VWS V14.01,2013-09-30 19:05:00,
2013-09-30 14:10:00,82.6,65.3,29.80,SE,146,1.0,8.0,56,0.00,,,0.00,Wunderground v.1.15,2013-09-30 19:10:00,
2013-09-30 14:15:00,83.0,67.7,29.80,SSW,204,1.0,8.0,60,0.00,,,0.00,Wunderground v.1.15,2013-09-30 19:15:00,
2013-09-30 14:20:00,82.8,66.5,29.80,SSW,203,2.0,8.0,58,0.00,,,0.00,Wunderground v.1.15,2013-09-30 19:20:00,
2013-09-30 14:25:00,82.4,68.1,29.80,South,180,2.0,3.0,62,0.00,,---,0.00,VWS V14.01,2013-09-30 19:25:00,
2013-09-30 14:30:00,82.4,68.1,29.80,South,180,2.0,8.0,62,0.00,,,0.00,Wunderground v.1.15,2013-09-30 19:30:00,
2013-09-30 14:35:00,82.6,67.8,29.80,South,180,1.0,8.0,61,0.00,,,0.00,Wunderground v.1.15,2013-09-30 19:35:00,
2013-09-30 14:40:00,82.4,69.4,29.80,South,174,2.0,8.0,65,0.00,,,0.00,Wunderground v.1.15,2013-09-30 19:40:00,
2013-09-30 14:45:00,82.2,69.3,29.80,South,176,2.0,8.0,65,0.00,,,0.00,Wunderground v.1.15,2013-09-30 19:45:00,
2013-09-30 14:50:00,82.0,68.6,29.80,South,184,2.0,8.0,64,0.00,,,0.00,Wunderground v.1.15,2013-09-30 19:50:00,
2013-09-30 14:55:00,81.8,69.8,29.79,South,184,2.0,8.0,67,0.00,,,0.00,Wunderground v.1.15,2013-09-30 19:55:00,
2013-09-30 15:00:00,82.0,70.8,29.79,South,173,1.0,8.0,69,0.00,,,0.00,Wunderground v.1.15,2013-09-30 20:00:00,
2013-09-30 15:05:00,82.2,69.3,29.79,SSE,157,1.0,8.0,65,0.00,,,0.00,Wunderground v.1.15,2013-09-30 20:05:00,
2013-09-30 15:06:00,82.2,69.3,29.79,SSE,162,2.0,3.0,65,0.00,,---,0.00,VWS V14.01,2013-09-30 20:06:00,
2013-09-30 15:10:00,82.0,69.1,29.79,South,181,2.0,8.0,65,0.00,,,0.00,Wunderground v.1.15,2013-09-30 20:10:00,
2013-09-30 15:11:00,82.0,69.1,29.79,South,181,1.0,2.0,65,0.00,,---,0.00,VWS V14.01,2013-09-30 20:11:00,
2013-09-30 15:15:00,82.2,69.3,29.79,South,179,2.0,8.0,65,0.00,,,0.00,Wunderground v.1.15,2013-09-30 20:15:00,
2013-09-30 15:16:00,82.2,69.3,29.79,South,179,3.0,3.0,65,0.00,,---,0.00,VWS V14.01,2013-09-30 20:16:00,
2013-09-30 15:20:00,82.4,69.4,29.79,South,179,2.0,8.0,65,0.00,,,0.00,Wunderground v.1.15,2013-09-30 20:20:00,
2013-09-30 15:21:00,82.4,69.5,29.79,SSE,157,1.0,2.0,65,0.00,,---,0.00,VWS V14.01,2013-09-30 20:21:00,
2013-09-30 15:25:00,82.4,68.5,29.79,South,179,2.0,8.0,63,0.00,,,0.00,Wunderground v.1.15,2013-09-30 20:25:00,
2013-09-30 15:27:00,82.2,68.8,29.79,South,188,6.0,6.0,64,0.00,,---,0.00,VWS V14.01,2013-09-30 20:27:00,
2013-09-30 15:30:00,82.0,69.1,29.79,South,183,2.0,2.0,65,0.00,,,0.00,Wunderground v.1.15,2013-09-30 20:30:00,
2013-09-30 15:32:00,82.0,69.1,29.79,South,183,0.0,1.0,65,0.00,,---,0.00,VWS V14.01,2013-09-30 20:32:00,
2013-09-30 15:35:00,82.0,69.5,29.79,SE,139,1.0,8.0,66,0.00,,,0.00,Wunderground v.1.15,2013-09-30 20:35:00,
2013-09-30 15:37:00,82.2,69.3,29.79,ESE,115,1.0,3.0,65,0.00,,---,0.00,VWS V14.01,2013-09-30 20:37:00,
2013-09-30 15:40:00,82.4,70.3,29.79,ESE,115,1.0,1.0,67,0.00,,,0.00,Wunderground v.1.15,2013-09-30 20:40:00,
2013-09-30 15:42:00,82.4,70.3,29.79,ESE,115,0.0,1.0,67,0.00,,---,0.00,VWS V14.01,2013-09-30 20:42:00,
2013-09-30 15:45:00,82.8,70.7,29.79,ESE,116,1.0,8.0,67,0.00,,,0.00,Wunderground v.1.15,2013-09-30 20:45:00,
2013-09-30 15:47:00,82.8,70.7,29.79,ESE,116,1.0,2.0,67,0.00,,---,0.00,VWS V14.01,2013-09-30 20:47:00,
2013-09-30 15:50:00,83.2,67.9,29.78,SSW,210,1.0,8.0,60,0.00,,,0.00,Wunderground v.1.15,2013-09-30 20:50:00,
2013-09-30 15:52:00,83.2,67.9,29.78,SSW,205,2.0,2.0,60,0.00,,---,0.00,VWS V14.01,2013-09-30 20:52:00,
2013-09-30 15:55:00,83.6,67.8,29.78,ESE,123,2.0,8.0,59,0.00,,,0.00,Wunderground v.1.15,2013-09-30 20:55:00,
2013-09-30 15:58:00,83.6,68.7,29.78,SSE,159,1.0,5.0,61,0.00,,---,0.00,VWS V14.01,2013-09-30 20:58:00,
2013-09-30 16:00:00,83.6,68.7,29.78,SSE,159,2.0,2.0,61,0.00,,,0.00,Wunderground v.1.15,2013-09-30 21:00:00,
2013-09-30 16:03:00,83.4,69.5,29.78,SSW,207,3.0,5.0,63,0.00,,---,0.00,VWS V14.01,2013-09-30 21:03:00,
2013-09-30 16:05:00,83.4,69.5,29.78,SSW,205,2.0,8.0,63,0.00,,,0.00,Wunderground v.1.15,2013-09-30 21:05:00,
2013-09-30 16:08:00,83.4,68.6,29.78,SSE,164,2.0,5.0,61,0.00,,---,0.00,VWS V14.01,2013-09-30 21:08:00,
2013-09-30 16:10:00,83.4,69.0,29.78,SSE,162,2.0,8.0,62,0.00,,,0.00,Wunderground v.1.15,2013-09-30 21:10:00,
2013-09-30 16:13:00,83.8,68.4,29.78,South,179,1.0,3.0,60,0.00,,---,0.00,VWS V14.01,2013-09-30 21:13:00,
2013-09-30 16:15:00,83.8,68.4,29.78,South,179,2.0,8.0,60,0.00,,,0.00,Wunderground v.1.15,2013-09-30 21:15:00,
2013-09-30 16:18:00,84.0,69.1,29.78,South,179,1.0,3.0,61,0.00,,---,0.00,VWS V14.01,2013-09-30 21:18:00,
2013-09-30 16:20:00,84.0,69.1,29.77,South,179,1.0,8.0,61,0.00,,,0.00,Wunderground v.1.15,2013-09-30 21:20:00,
2013-09-30 16:23:00,84.0,68.1,29.77,NE,49,3.0,5.0,59,0.00,,---,0.00,VWS V14.01,2013-09-30 21:23:00,
2013-09-30 16:25:00,83.6,67.3,29.77,NE,50,2.0,8.0,58,0.00,,,0.00,Wunderground v.1.15,2013-09-30 21:25:00,
2013-09-30 16:28:00,83.4,67.6,29.77,SE,142,1.0,6.0,59,0.00,,---,0.00,VWS V14.01,2013-09-30 21:28:00,
2013-09-30 16:30:00,83.6,67.8,29.77,ENE,57,2.0,8.0,59,0.00,,,0.00,Wunderground v.1.15,2013-09-30 21:30:00,
2013-09-30 16:33:00,83.8,68.4,29.77,ENE,57,0.0,2.0,60,0.00,,---,0.00,VWS V14.01,2013-09-30 21:33:00,
2013-09-30 16:35:00,84.0,67.1,29.77,ENE,57,1.0,8.0,57,0.00,,,0.00,Wunderground v.1.15,2013-09-30 21:35:00,
2013-09-30 16:38:00,84.0,68.6,29.77,ESE,104,1.0,5.0,60,0.00,,---,0.00,VWS V14.01,2013-09-30 21:38:00,
2013-09-30 16:40:00,84.0,68.1,29.77,ESE,104,2.0,2.0,59,0.00,,,0.00,Wunderground v.1.15,2013-09-30 21:40:00,
2013-09-30 16:44:00,84.1,68.2,29.77,South,190,1.0,3.0,59,0.00,,---,0.00,VWS V14.01,2013-09-30 21:44:00,
2013-09-30 16:45:00,84.1,68.7,29.77,ENE,66,2.0,8.0,60,0.00,,,0.00,Wunderground v.1.15,2013-09-30 21:45:00,
2013-09-30 16:49:00,84.0,68.1,29.77,ENE,59,1.0,5.0,59,0.00,,---,0.00,VWS V14.01,2013-09-30 21:49:00,
2013-09-30 16:50:00,84.0,68.1,29.77,South,190,2.0,8.0,59,0.00,,,0.00,Wunderground v.1.15,2013-09-30 21:50:00,
2013-09-30 16:54:00,83.8,67.5,29.77,East,83,2.0,3.0,58,0.00,,---,0.00,VWS V14.01,2013-09-30 21:54:00,
2013-09-30 16:55:00,83.8,67.4,29.77,East,81,2.0,8.0,58,0.00,,,0.00,Wunderground v.1.15,2013-09-30 21:55:00,
2013-09-30 16:59:00,84.0,68.6,29.77,SW,218,1.0,3.0,60,0.00,,---,0.00,VWS V14.01,2013-09-30 21:59:00,
2013-09-30 17:00:00,84.0,69.1,29.77,SW,218,1.0,1.0,61,0.00,,,0.00,Wunderground v.1.15,2013-09-30 22:00:00,
2013-09-30 17:04:00,84.0,68.1,29.77,ENE,63,0.0,2.0,59,0.00,,---,0.00,VWS V14.01,2013-09-30 22:04:00,
2013-09-30 17:05:00,84.0,68.1,29.77,ENE,66,1.0,8.0,59,0.00,,,0.00,Wunderground v.1.15,2013-09-30 22:05:00,
2013-09-30 17:09:00,84.0,68.1,29.77,ENE,64,1.0,3.0,59,0.00,,---,0.00,VWS V14.01,2013-09-30 22:09:00,
2013-09-30 17:10:00,84.0,68.1,29.77,ENE,64,1.0,8.0,59,0.00,,,0.00,Wunderground v.1.15,2013-09-30 22:10:00,
2013-09-30 17:14:00,83.2,67.9,29.77,East,90,1.0,3.0,60,0.00,,---,0.00,VWS V14.01,2013-09-30 22:14:00,
2013-09-30 17:15:00,83.0,68.2,29.77,East,90,1.0,8.0,61,0.00,,,0.00,Wunderground v.1.15,2013-09-30 22:15:00,
2013-09-30 17:19:00,82.8,68.5,29.77,East,87,2.0,3.0,62,0.00,,---,0.00,VWS V14.01,2013-09-30 22:19:00,
2013-09-30 17:20:00,82.6,68.3,29.77,East,87,1.0,1.0,62,0.00,,,0.00,Wunderground v.1.15,2013-09-30 22:20:00,
2013-09-30 17:24:00,82.4,68.1,29.77,East,87,1.0,2.0,62,0.00,,---,0.00,VWS V14.01,2013-09-30 22:24:00,
2013-09-30 17:25:00,82.4,68.1,29.77,East,87,1.0,8.0,62,0.00,,,0.00,Wunderground v.1.15,2013-09-30 22:25:00,
2013-09-30 17:29:00,82.2,68.8,29.77,East,87,0.0,2.0,64,0.00,,---,0.00,VWS V14.01,2013-09-30 22:29:00,
2013-09-30 17:30:00,82.0,68.6,29.77,East,87,1.0,8.0,64,0.00,,,0.00,Wunderground v.1.15,2013-09-30 22:30:00,
2013-09-30 17:34:00,82.0,68.6,29.77,East,87,0.0,1.0,64,0.00,,---,0.00,VWS V14.01,2013-09-30 22:34:00,
2013-09-30 17:35:00,81.8,68.4,29.77,East,85,1.0,8.0,64,0.00,,,0.00,Wunderground v.1.15,2013-09-30 22:35:00,
2013-09-30 17:39:00,81.6,68.2,29.77,East,85,0.0,2.0,64,0.00,,---,0.00,VWS V14.01,2013-09-30 22:39:00,
2013-09-30 17:40:00,81.6,68.2,29.77,East,85,1.0,8.0,64,0.00,,,0.00,Wunderground v.1.15,2013-09-30 22:40:00,
2013-09-30 17:44:00,81.2,67.9,29.78,East,83,3.0,3.0,64,0.00,,---,0.00,VWS V14.01,2013-09-30 22:44:00,
2013-09-30 17:45:00,81.2,67.9,29.78,East,83,1.0,8.0,64,0.00,,,0.00,Wunderground v.1.15,2013-09-30 22:45:00,
2013-09-30 17:50:00,80.9,68.0,29.77,East,83,0.0,3.0,65,0.00,,---,0.00,VWS V14.01,2013-09-30 22:50:00,
2013-09-30 17:55:00,80.7,67.8,29.77,East,83,0.0,1.0,65,0.00,,---,0.00,VWS V14.01,2013-09-30 22:55:00,
2013-09-30 18:00:00,80.5,67.6,29.77,East,83,0.0,8.0,65,0.00,,,0.00,Wunderground v.1.15,2013-09-30 23:00:00,
2013-09-30 18:05:00,80.3,68.8,29.77,East,83,0.0,1.0,68,0.00,,---,0.00,VWS V14.01,2013-09-30 23:05:00,
2013-09-30 18:10:00,80.3,69.2,29.78,East,83,0.0,0.0,69,0.00,,---,0.00,VWS V14.01,2013-09-30 23:10:00,
2013-09-30 18:15:00,80.1,70.3,29.78,East,83,0.0,0.0,72,0.00,,,0.00,Wunderground v.1.15,2013-09-30 23:15:00,
2013-09-30 18:20:00,79.8,70.8,29.78,East,83,0.0,0.0,74,0.00,,,0.00,Wunderground v.1.15,2013-09-30 23:20:00,
2013-09-30 18:25:00,79.4,70.8,29.78,East,83,0.0,0.0,75,0.00,,,0.00,Wunderground v.1.15,2013-09-30 23:25:00,
2013-09-30 18:30:00,78.8,71.0,29.78,East,83,0.0,0.0,77,0.00,,,0.00,Wunderground v.1.15,2013-09-30 23:30:00,
2013-09-30 18:35:00,78.3,71.6,29.78,East,83,0.0,0.0,80,0.00,,,0.00,Wunderground v.1.15,2013-09-30 23:35:00,
2013-09-30 18:40:00,77.9,71.2,29.78,East,83,0.0,0.0,80,0.00,,,0.00,Wunderground v.1.15,2013-09-30 23:40:00,
2013-09-30 18:45:00,77.2,70.5,29.78,East,83,0.0,0.0,80,0.00,,,0.00,Wunderground v.1.15,2013-09-30 23:45:00,
2013-09-30 18:50:00,76.7,70.8,29.79,East,83,0.0,0.0,82,0.00,,,0.00,Wunderground v.1.15,2013-09-30 23:50:00,
2013-09-30 18:55:00,76.3,70.8,29.79,East,83,0.0,0.0,83,0.00,,,0.00,Wunderground v.1.15,2013-09-30 23:55:00,
2013-09-30 18:56:00,76.3,70.8,29.79,East,83,0.0,0.0,83,0.00,,---,0.00,VWS V14.01,2013-09-30 23:56:00,
2013-09-30 19:00:00,75.8,70.6,29.79,East,83,0.0,0.0,84,0.00,,,0.00,Wunderground v.1.15,2013-10-01 00:00:00,
2013-09-30 19:01:00,75.8,70.6,29.79,East,83,0.0,0.0,84,0.00,,---,0.00,VWS V14.01,2013-10-01 00:01:00,
2013-09-30 19:05:00,75.1,70.3,29.79,East,83,0.0,2.0,85,0.00,,,0.00,Wunderground v.1.15,2013-10-01 00:05:00,
2013-09-30 19:06:00,75.1,70.3,29.79,East,83,0.0,0.0,85,0.00,,---,0.00,VWS V14.01,2013-10-01 00:06:00,
2013-09-30 19:10:00,74.7,69.9,29.79,East,83,0.0,2.0,85,0.00,,,0.00,Wunderground v.1.15,2013-10-01 00:10:00,
2013-09-30 19:11:00,74.7,69.9,29.79,East,83,0.0,0.0,85,0.00,,---,0.00,VWS V14.01,2013-10-01 00:11:00,
2013-09-30 19:15:00,74.4,69.6,29.79,East,83,0.0,2.0,85,0.00,,,0.00,Wunderground v.1.15,2013-10-01 00:15:00,
2013-09-30 19:16:00,74.4,69.6,29.79,East,83,0.0,0.0,85,0.00,,---,0.00,VWS V14.01,2013-10-01 00:16:00,
2013-09-30 19:20:00,74.0,69.5,29.80,East,83,0.0,2.0,86,0.00,,,0.00,Wunderground v.1.15,2013-10-01 00:20:00,
2013-09-30 19:21:00,74.0,69.6,29.80,East,83,0.0,0.0,86,0.00,,---,0.00,VWS V14.01,2013-10-01 00:21:00,
2013-09-30 19:25:00,73.9,69.8,29.80,East,83,0.0,2.0,87,0.00,,,0.00,Wunderground v.1.15,2013-10-01 00:25:00,
2013-09-30 19:26:00,73.9,69.8,29.80,East,83,0.0,0.0,87,0.00,,---,0.00,VWS V14.01,2013-10-01 00:26:00,
2013-09-30 19:30:00,73.9,69.8,29.80,East,83,0.0,2.0,87,0.00,,,0.00,Wunderground v.1.15,2013-10-01 00:30:00,
2013-09-30 19:31:00,73.9,69.8,29.80,East,83,0.0,0.0,87,0.00,,---,0.00,VWS V14.01,2013-10-01 00:31:00,
2013-09-30 19:35:00,73.5,70.1,29.80,East,83,0.0,2.0,89,0.00,,,0.00,Wunderground v.1.15,2013-10-01 00:35:00,
2013-09-30 19:37:00,73.5,70.1,29.80,East,83,0.0,0.0,89,0.00,,---,0.00,VWS V14.01,2013-10-01 00:37:00,
2013-09-30 19:42:00,73.2,69.8,29.80,East,83,0.0,0.0,89,0.00,,---,0.00,VWS V14.01,2013-10-01 00:42:00,
2013-09-30 19:45:00,73.2,69.8,29.80,East,83,0.0,2.0,89,0.00,,,0.00,Wunderground v.1.15,2013-10-01 00:45:00,
2013-09-30 19:47:00,73.0,69.6,29.80,East,83,0.0,0.0,89,0.00,,---,0.00,VWS V14.01,2013-10-01 00:47:00,
2013-09-30 19:50:00,73.0,69.6,29.80,East,83,0.0,2.0,89,0.00,,,0.00,Wunderground v.1.15,2013-10-01 00:50:00,
2013-09-30 19:52:00,73.0,69.6,29.80,East,83,0.0,0.0,89,0.00,,---,0.00,VWS V14.01,2013-10-01 00:52:00,
2013-09-30 19:55:00,72.5,69.4,29.80,East,83,0.0,2.0,90,0.00,,,0.00,Wunderground v.1.15,2013-10-01 00:55:00,
2013-09-30 19:57:00,72.5,69.4,29.80,East,83,0.0,0.0,90,0.00,,---,0.00,VWS V14.01,2013-10-01 00:57:00,
2013-09-30 20:00:00,72.1,69.0,29.80,East,83,0.0,2.0,90,0.00,,,0.00,Wunderground v.1.15,2013-10-01 01:00:00,
2013-09-30 20:02:00,72.1,69.0,29.80,East,83,0.0,0.0,90,0.00,,---,0.00,VWS V14.01,2013-10-01 01:02:00,
2013-09-30 20:05:00,71.8,68.7,29.80,East,83,0.0,2.0,90,0.00,,,0.00,Wunderground v.1.15,2013-10-01 01:05:00,
2013-09-30 20:07:00,71.8,68.7,29.80,East,83,0.0,0.0,90,0.00,,---,0.00,VWS V14.01,2013-10-01 01:07:00,
2013-09-30 20:10:00,71.6,68.5,29.80,East,83,0.0,2.0,90,0.00,,,0.00,Wunderground v.1.15,2013-10-01 01:10:00,
2013-09-30 20:12:00,71.5,68.4,29.80,East,83,0.0,0.0,90,0.00,,---,0.00,VWS V14.01,2013-10-01 01:12:00,
2013-09-30 20:15:00,71.3,68.2,29.80,East,83,0.0,2.0,90,0.00,,,0.00,Wunderground v.1.15,2013-10-01 01:15:00,
2013-09-30 20:17:00,71.3,68.2,29.81,East,83,0.0,0.0,90,0.00,,---,0.00,VWS V14.01,2013-10-01 01:17:00,
2013-09-30 20:20:00,71.1,68.3,29.81,East,83,0.0,2.0,91,0.00,,,0.00,Wunderground v.1.15,2013-10-01 01:20:00,
2013-09-30 20:23:00,71.1,68.3,29.81,East,83,0.0,0.0,91,0.00,,---,0.00,VWS V14.01,2013-10-01 01:23:00,
2013-09-30 20:25:00,70.9,68.1,29.81,East,83,0.0,2.0,91,0.00,,,0.00,Wunderground v.1.15,2013-10-01 01:25:00,
2013-09-30 20:28:00,70.9,68.2,29.81,East,83,0.0,0.0,91,0.00,,---,0.00,VWS V14.01,2013-10-01 01:28:00,
2013-09-30 20:30:00,70.8,68.0,29.81,East,83,0.0,2.0,91,0.00,,,0.00,Wunderground v.1.15,2013-10-01 01:30:00,
2013-09-30 20:33:00,70.8,68.1,29.81,East,83,0.0,0.0,91,0.00,,---,0.00,VWS V14.01,2013-10-01 01:33:00,
2013-09-30 20:35:00,70.6,67.8,29.81,East,83,0.0,2.0,91,0.00,,,0.00,Wunderground v.1.15,2013-10-01 01:35:00,
2013-09-30 20:38:00,70.4,67.7,29.81,East,83,0.0,0.0,91,0.00,,---,0.00,VWS V14.01,2013-10-01 01:38:00,
2013-09-30 20:40:00,70.4,67.6,29.81,East,83,0.0,2.0,91,0.00,,,0.00,Wunderground v.1.15,2013-10-01 01:40:00,
2013-09-30 20:43:00,70.3,67.6,29.81,East,83,0.0,0.0,91,0.00,,---,0.00,VWS V14.01,2013-10-01 01:43:00,
2013-09-30 20:45:00,70.3,67.5,29.81,East,83,0.0,2.0,91,0.00,,,0.00,Wunderground v.1.15,2013-10-01 01:45:00,
2013-09-30 20:48:00,70.1,67.7,29.81,East,83,0.0,0.0,92,0.00,,---,0.00,VWS V14.01,2013-10-01 01:48:00,
2013-09-30 20:53:00,69.9,67.5,29.81,East,83,0.0,0.0,92,0.00,,---,0.00,VWS V14.01,2013-10-01 01:53:00,
2013-09-30 20:55:00,69.8,67.4,29.81,East,83,0.0,2.0,92,0.00,,,0.00,Wunderground v.1.15,2013-10-01 01:55:00,
2013-09-30 20:59:00,69.6,67.2,29.81,East,83,0.0,0.0,92,0.00,,---,0.00,VWS V14.01,2013-10-01 01:59:00,
2013-09-30 21:00:00,69.6,67.2,29.81,East,83,0.0,2.0,92,0.00,,,0.00,Wunderground v.1.15,2013-10-01 02:00:00,
2013-09-30 21:04:00,69.3,66.9,29.81,East,83,0.0,0.0,92,0.00,,---,0.00,VWS V14.01,2013-10-01 02:04:00,
2013-09-30 21:05:00,69.3,66.9,29.81,East,83,0.0,2.0,92,0.00,,,0.00,Wunderground v.1.15,2013-10-01 02:05:00,
2013-09-30 21:09:00,69.1,66.7,29.81,East,83,0.0,0.0,92,0.00,,---,0.00,VWS V14.01,2013-10-01 02:09:00,
2013-09-30 21:10:00,69.1,66.7,29.81,East,83,0.0,2.0,92,0.00,,,0.00,Wunderground v.1.15,2013-10-01 02:10:00,
2013-09-30 21:14:00,68.9,66.5,29.81,East,83,0.0,0.0,92,0.00,,---,0.00,VWS V14.01,2013-10-01 02:14:00,
2013-09-30 21:15:00,68.9,66.5,29.81,East,83,0.0,2.0,92,0.00,,,0.00,Wunderground v.1.15,2013-10-01 02:15:00,
2013-09-30 21:19:00,68.8,66.4,29.81,East,83,0.0,0.0,92,0.00,,---,0.00,VWS V14.01,2013-10-01 02:19:00,
2013-09-30 21:24:00,68.6,66.2,29.82,East,83,0.0,0.0,92,0.00,,---,0.00,VWS V14.01,2013-10-01 02:24:00,
2013-09-30 21:25:00,68.6,66.2,29.82,East,83,0.0,2.0,92,0.00,,,0.00,Wunderground v.1.15,2013-10-01 02:25:00,
2013-09-30 21:29:00,68.4,66.0,29.82,East,83,0.0,0.0,92,0.00,,---,0.00,VWS V14.01,2013-10-01 02:29:00,
2013-09-30 21:30:00,68.4,66.3,29.82,East,83,0.0,2.0,93,0.00,,,0.00,Wunderground v.1.15,2013-10-01 02:30:00,
2013-09-30 21:34:00,68.4,66.3,29.82,East,83,0.0,0.0,93,0.00,,---,0.00,VWS V14.01,2013-10-01 02:34:00,
2013-09-30 21:39:00,68.3,66.2,29.82,East,83,0.0,0.0,93,0.00,,---,0.00,VWS V14.01,2013-10-01 02:39:00,
2013-09-30 21:40:00,68.3,66.2,29.82,East,83,0.0,2.0,93,0.00,,,0.00,Wunderground v.1.15,2013-10-01 02:40:00,
2013-09-30 21:44:00,68.1,66.0,29.82,East,83,0.0,0.0,93,0.00,,---,0.00,VWS V14.01,2013-10-01 02:44:00,
2013-09-30 21:45:00,68.1,66.0,29.82,East,83,0.0,2.0,93,0.00,,,0.00,Wunderground v.1.15,2013-10-01 02:45:00,
2013-09-30 21:50:00,67.9,65.8,29.82,East,83,0.0,0.0,93,0.00,,---,0.00,VWS V14.01,2013-10-01 02:50:00,
2013-09-30 21:55:00,67.8,65.7,29.83,East,83,0.0,0.0,93,0.00,,---,0.00,VWS V14.01,2013-10-01 02:55:00,
2013-09-30 22:00:00,67.8,65.7,29.83,East,83,0.0,0.0,93,0.00,,---,0.00,VWS V14.01,2013-10-01 03:00:00,
2013-09-30 22:05:00,67.6,65.5,29.83,East,83,0.0,0.0,93,0.00,,---,0.00,VWS V14.01,2013-10-01 03:05:00,
2013-09-30 22:10:00,67.6,65.5,29.83,East,83,0.0,0.0,93,0.00,,---,0.00,VWS V14.01,2013-10-01 03:10:00,
2013-09-30 22:15:00,67.4,65.3,29.83,East,83,0.0,0.0,93,0.00,,---,0.00,VWS V14.01,2013-10-01 03:15:00,
2013-09-30 22:20:00,67.3,65.2,29.83,East,83,0.0,2.0,93,0.00,,,0.00,Wunderground v.1.15,2013-10-01 03:20:00,
2013-09-30 22:25:00,67.1,65.3,29.83,East,83,0.0,2.0,94,0.00,,,0.00,Wunderground v.1.15,2013-10-01 03:25:00,
2013-09-30 22:30:00,67.1,65.3,29.83,East,83,0.0,0.0,94,0.00,,---,0.00,VWS V14.01,2013-10-01 03:30:00,
2013-09-30 22:35:00,67.1,65.3,29.83,East,83,0.0,2.0,94,0.00,,,0.00,Wunderground v.1.15,2013-10-01 03:35:00,
2013-09-30 22:40:00,66.9,65.1,29.83,East,83,0.0,2.0,94,0.00,,,0.00,Wunderground v.1.15,2013-10-01 03:40:00,
2013-09-30 22:41:00,66.9,65.1,29.83,East,83,0.0,0.0,94,0.00,,---,0.00,VWS V14.01,2013-10-01 03:41:00,
2013-09-30 22:45:00,66.9,65.1,29.83,East,83,0.0,2.0,94,0.00,,,0.00,Wunderground v.1.15,2013-10-01 03:45:00,
2013-09-30 22:46:00,66.9,65.1,29.83,East,83,0.0,0.0,94,0.00,,---,0.00,VWS V14.01,2013-10-01 03:46:00,
2013-09-30 22:50:00,66.9,65.1,29.83,East,83,0.0,2.0,94,0.00,,,0.00,Wunderground v.1.15,2013-10-01 03:50:00,
2013-09-30 22:51:00,66.9,65.1,29.83,East,83,0.0,0.0,94,0.00,,---,0.00,VWS V14.01,2013-10-01 03:51:00,
2013-09-30 22:55:00,66.9,65.1,29.83,East,83,0.0,2.0,94,0.00,,,0.00,Wunderground v.1.15,2013-10-01 03:55:00,
2013-09-30 22:56:00,66.9,65.1,29.83,East,83,0.0,0.0,94,0.00,,---,0.00,VWS V14.01,2013-10-01 03:56:00,
2013-09-30 23:00:00,66.9,65.1,29.83,East,83,0.0,2.0,94,0.00,,,0.00,Wunderground v.1.15,2013-10-01 04:00:00,
2013-09-30 23:01:00,66.9,65.1,29.83,East,83,0.0,0.0,94,0.00,,---,0.00,VWS V14.01,2013-10-01 04:01:00,
2013-09-30 23:05:00,66.9,65.1,29.82,East,83,0.0,2.0,94,0.00,,,0.00,Wunderground v.1.15,2013-10-01 04:05:00,
2013-09-30 23:06:00,66.9,65.1,29.82,East,83,0.0,0.0,94,0.00,,---,0.00,VWS V14.01,2013-10-01 04:06:00,
2013-09-30 23:10:00,66.9,65.1,29.82,East,83,0.0,2.0,94,0.00,,,0.00,Wunderground v.1.15,2013-10-01 04:10:00,
2013-09-30 23:11:00,66.9,65.1,29.82,East,83,0.0,0.0,94,0.00,,---,0.00,VWS V14.01,2013-10-01 04:11:00,
2013-09-30 23:15:00,66.8,65.0,29.82,East,83,0.0,2.0,94,0.00,,,0.00,Wunderground v.1.15,2013-10-01 04:15:00,
2013-09-30 23:16:00,66.8,65.0,29.82,East,83,0.0,0.0,94,0.00,,---,0.00,VWS V14.01,2013-10-01 04:16:00,
2013-09-30 23:20:00,66.8,65.0,29.82,East,83,0.0,2.0,94,0.00,,,0.00,Wunderground v.1.15,2013-10-01 04:20:00,
2013-09-30 23:21:00,66.8,65.0,29.82,East,83,0.0,0.0,94,0.00,,---,0.00,VWS V14.01,2013-10-01 04:21:00,
2013-09-30 23:25:00,66.8,65.0,29.82,East,83,0.0,2.0,94,0.00,,,0.00,Wunderground v.1.15,2013-10-01 04:25:00,
2013-09-30 23:26:00,66.8,65.0,29.82,East,83,0.0,0.0,94,0.00,,---,0.00,VWS V14.01,2013-10-01 04:26:00,
2013-09-30 23:30:00,66.8,65.0,29.82,East,83,0.0,2.0,94,0.00,,,0.00,Wunderground v.1.15,2013-10-01 04:30:00,
2013-09-30 23:31:00,66.8,65.0,29.82,East,83,0.0,0.0,94,0.00,,---,0.00,VWS V14.01,2013-10-01 04:31:00,
2013-09-30 23:35:00,66.8,65.0,29.82,East,83,0.0,2.0,94,0.00,,,0.00,Wunderground v.1.15,2013-10-01 04:35:00,
2013-09-30 23:37:00,66.8,65.0,29.82,East,83,0.0,0.0,94,0.00,,---,0.00,VWS V14.01,2013-10-01 04:37:00,
2013-09-30 23:40:00,66.8,65.0,29.82,East,83,0.0,2.0,94,0.00,,,0.00,Wunderground v.1.15,2013-10-01 04:40:00,
2013-09-30 23:42:00,66.8,65.0,29.82,East,83,0.0,0.0,94,0.00,,---,0.00,VWS V14.01,2013-10-01 04:42:00,
2013-09-30 23:45:00,66.8,65.0,29.82,East,83,0.0,2.0,94,0.00,,,0.00,Wunderground v.1.15,2013-10-01 04:45:00,
2013-09-30 23:47:00,66.8,65.0,29.82,East,83,0.0,0.0,94,0.00,,---,0.00,VWS V14.01,2013-10-01 04:47:00,
2013-09-30 23:50:00,66.4,64.6,29.82,East,83,0.0,2.0,94,0.00,,,0.00,Wunderground v.1.15,2013-10-01 04:50:00,
2013-09-30 23:52:00,66.4,64.6,29.82,East,83,0.0,0.0,94,0.00,,---,0.00,VWS V14.01,2013-10-01 04:52:00,
2013-09-30 23:55:00,66.4,64.6,29.82,East,83,0.0,2.0,94,0.00,,,0.00,Wunderground v.1.15,2013-10-01 04:55:00,
2013-09-30 23:57:00,66.4,64.6,29.82,East,83,0.0,0.0,94,0.00,,---,0.00,VWS V14.01,2013-10-01 04:57:00,